RADUGA 16 [-]

Last updated on Wed Jun 28 2023 00:02:57 GMT+0000 (Coordinated Universal Time)

1 15946U 85070A 23178.48212623 -.00000177 00000+0 00000+0 0 9998 2 15946 11.3209 324.5132 0003292 164.6908 226.5431 1.00378751111337

Satellite not in orbit

RADUGA 16 [-]